Regional Weather Roundup
Issued by NWS

Home | Current Version | Previous Version | Graphics & Text | Print | Product List | Glossary On
Versions: 1 2 3 4 5 6 7 8 9 10 11 12 13 14 15 16 17 18 19 20 21 22 23 24 25 26 27 28 29 30 31 32 33 34 35 36 37 38 39 40 41 42 43 44 45 46 47 48 49 50
000
ASUS45 KBOU 270807
RWRCO

WEATHER ROUNDUP FOR COLORADO
NATIONAL WEATHER SERVICE DENVER/BOULDER CO
200 AM MDT WED MAY 27 2015

NOTE: "FAIR" INDICATES FEW OR NO CLOUDS BELOW 12000 FEET WITH NO
SIGNIFICANT WEATHER AND/OR OBSTRUCTIONS TO VISIBILITY.

COZ001>005-013-030-031-270900-
...NORTHWEST COLORADO...

CITY           SKY/WX    TMP DP  RH WIND       PRES   REMARKS
CRAIG          CLOUDY    49  43  80 CALM      30.13F
HAYDEN         CLOUDY    46  43  87 NE5       30.15S
MEEKER         MOCLDY    46  43  89 NE5       30.15F
MOUNT WERNER   NOT AVBL
STEAMBOAT SPGS CLOUDY    45  44  95 E5        30.16F
WALDEN         CLOUDY    43  37  81 SW3       30.18S
$$

COZ006>008-011-270900-
...WEST CENTRAL VALLEYS...

CITY           SKY/WX    TMP DP  RH WIND       PRES   REMARKS
GRAND JUNCTION PTCLDY    49  47  93 E7        30.10R
MONTROSE       PTCLDY    46  44  93 S5        30.16S
EAGLE          CLOUDY    46  43  87 NE3       30.19S
RIFLE          MOCLDY    48  45  89 SE5       30.13F
DELTA          PTCLDY    50  46  84 MISG      30.13S
NUCLA          MOCLDY    46  41  81 E8        30.17F
$$

COZ017>023-064>068-270900-
...SOUTHWEST COLORADO...

CITY           SKY/WX    TMP DP  RH WIND       PRES   REMARKS
DURANGO        RAIN      53  42  66 VRB6G36   30.20R
CORTEZ         CLEAR     44  40  85 NE5       30.13S
PAGOSA SPRINGS MOCLDY    43  41  93 CALM      30.23F
TELLURIDE      MOCLDY    42  35  75 SE5       30.30R
WOLF CREEK PAS NOT AVBL
$$

COZ009-010-012-014-032>034-037-058>063-270900-
...CENTRAL COLORADO...

CITY           SKY/WX    TMP DP  RH WIND       PRES   REMARKS
ASPEN          NOT AVBL
BUENA VISTA    MOCLDY    47  35  65 SE3       30.20S
COPPER MTN     CLOUDY    36  30  80 W8G16     30.36S
BERTHOUD PASS  FAIR      28  21  74 W24G32    30.36S WCI  14
COTTONWOOD PAS CLOUDY    45  32  61 S5        30.29R
GUNNISON       PTCLDY    39  34  81 CALM      30.25S
KREMMLING      MOCLDY    46  37  71 NE3       30.19S
LEADVILLE      CLOUDY    35  32  88 NE3       30.27S
SALIDA         PTCLDY    49  37  62 W9        30.27R
SUNLIGHT       MOCLDY    36  34  93 CALM      30.33F
WILKERSON PASS PTCLDY    32  30  93 SW10      30.35S WCI  24
$$

COZ069>075-270900-
...SAN LUIS VALLEY/SANGRE DE CRISTO MOUNTAINS...

CITY           SKY/WX    TMP DP  RH WIND       PRES   REMARKS
ALAMOSA        MOCLDY    39  36  89 S6        30.22R
LA VETA PASS   PTCLDY   N/A N/A N/A MISG      30.31S
SAGUACHE       CLEAR     39  37  93 NW5       30.24S
$$

COZ035-036-038>040-270900-
...NORTHERN COLORADO FRONT RANGE...

CITY           SKY/WX    TMP DP  RH WIND       PRES   REMARKS
DENVER INTL AP MOCLDY    52  45  77 S13       30.06F
DMNS CITY PARK   N/A     52  45  76 SW6G12    30.07R
AURORA         MOCLDY    52  43  72 S14       30.07F
FRONT RANGE AP MOCLDY    54  46  76 S6        30.08S
ERIE MUNI ARPT CLOUDY    50  47  89 CALM      30.06R
BOULDER MUN AP CLOUDY    54  45  71 CALM      30.05S
CENTENNIAL     MOCLDY    50  44  80 S10       30.08F
BROOMFIELD     CLOUDY    50  43  76 CALM      30.07S
FORT COLLINS   MOCLDY    52  48  87 CALM      30.07R
LONGMONT       CLOUDY    53  47  82 SW3       30.07R
$$

COZ041-046-047-076>085-087-088-270900-
...PIKES PEAK/PALMER DIVIDE AND SOUTHERN FOOTHILLS...

CITY           SKY/WX    TMP DP  RH WIND       PRES   REMARKS
COLO. SPRINGS  MOCLDY    49  47  93 N3        30.15R
A. F. ACADEMY  MOCLDY    43  43  99 N2        30.15S
ELLICOTT       MOCLDY   N/A N/A N/A CALM      30.13S
FALCON         MOCLDY    47  44  90 CALM      30.18R
FORT CARSON    NOT AVBL
LIMON          LGT RAIN  55  44  66 E21G36    30.08F
MONUMENT HILL    N/A     45  41  87 E6        30.16S
TRINIDAD       CLEAR     50  45  83 W8        30.12S
$$

COZ042>045-048>051-090-091-270900-
...NORTHEAST COLORADO...

CITY           SKY/WX    TMP DP  RH WIND       PRES   REMARKS
GREELEY ARPT   MOCLDY    50  45  81 SE5       30.04S
AKRON          MOCLDY    52  50  93 SE7       30.05F
BURLINGTON     CLOUDY    56  50  80 SE13      30.07F
WRAY           CLOUDY    56  51  82 SE5       30.07R
STERLING       MOCLDY    52  50  93 S5        30.04S
HOLYOKE        PTCLDY    55  52  88 S7        30.06S
FORT MORGAN    MOCLDY    52  49  87 CALM      30.05S
$$

COZ086-089-092>099-270900-
...SOUTHEAST COLORADO...

CITY           SKY/WX    TMP DP  RH WIND       PRES   REMARKS
PUEBLO         MOCLDY    54  50  86 N9        30.08S
LA JUNTA       CLOUDY    58  52  80 NE8       30.04F
LAMAR          CLOUDY    56  53  90 E8        30.03F
SPRINGFIELD      N/A     64  42  44 N7        30.03F
$$



USA.gov is the U.S. government's official web portal to all federal, state and local government web resources and services.